Previsão horária em Justynow

Hoje, 19 Junho, Sábado

Tempo Temperatura Precipitação Vento Pressão Humidade
00:00 +20°C° 0 mm 3 m/s 743 mmHg 79%
01:00 +19°C° 0 mm 3 m/s 743 mmHg 81%
02:00 +19°C° 0 mm 3 m/s 743 mmHg 82%
03:00 +18°C° 0 mm 3 m/s 743 mmHg 84%
04:00 +18°C° 0 mm 3 m/s 743 mmHg 86%
05:00 +20°C° 0 mm 3 m/s 743 mmHg 80%
06:00 +21°C° 0 mm 3 m/s 743 mmHg 74%
07:00 +23°C° 0 mm 4 m/s 743 mmHg 68%
08:00 +25°C° 0 mm 4 m/s 743 mmHg 63%
09:00 +27°C° 0 mm 4 m/s 743 mmHg 57%
10:00 +28°C° 0 mm 4 m/s 743 mmHg 52%
11:00 +29°C° 0 mm 4 m/s 743 mmHg 50%
12:00 +30°C° 0 mm 4 m/s 742 mmHg 48%
13:00 +31°C° 0 mm 3 m/s 742 mmHg 45%
14:00 +31°C° 0 mm 3 m/s 742 mmHg 46%
15:00 +31°C° 0 mm 3 m/s 742 mmHg 46%
16:00 +31°C° 0 mm 3 m/s 741 mmHg 47%
17:00 +29°C° 0 mm 3 m/s 741 mmHg 54%
18:00 +28°C° 0 mm 3 m/s 741 mmHg 62%
19:00 +27°C° 0 mm 3 m/s 741 mmHg 69%
20:00 +26°C° 0 mm 3 m/s 741 mmHg 71%
21:00 +25°C° 0 mm 3 m/s 741 mmHg 73%
22:00 +24°C° 0 mm 3 m/s 742 mmHg 76%
23:00 +22°C° 0 mm 3 m/s 742 mmHg 77%

Amanhã, 20 Junho, Domingo

Tempo Temperatura Precipitação Vento Pressão Humidade
00:00 +21°C° 0 mm 3 m/s 741 mmHg 78%
01:00 +21°C° 0 mm 3 m/s 741 mmHg 79%
02:00 +20°C° 0 mm 3 m/s 741 mmHg 82%
03:00 +19°C° 0 mm 3 m/s 741 mmHg 86%
04:00 +18°C° 0 mm 3 m/s 741 mmHg 90%
05:00 +20°C° 0 mm 3 m/s 741 mmHg 84%
06:00 +21°C° 0 mm 4 m/s 741 mmHg 79%
07:00 +23°C° 0 mm 4 m/s 741 mmHg 73%
08:00 +25°C° 0 mm 4 m/s 741 mmHg 66%
09:00 +26°C° 0 mm 4 m/s 741 mmHg 60%
10:00 +27°C° 0 mm 4 m/s 741 mmHg 53%
11:00 +28°C° 0 mm 4 m/s 741 mmHg 51%
12:00 +28°C° 0 mm 5 m/s 740 mmHg 49%
13:00 +29°C° 0 mm 5 m/s 740 mmHg 48%
14:00 +29°C° 0 mm 5 m/s 739 mmHg 48%
15:00 +29°C° 0 mm 4 m/s 739 mmHg 48%
16:00 +29°C° 0 mm 4 m/s 739 mmHg 48%
17:00 +28°C° 0 mm 4 m/s 739 mmHg 55%
18:00 +27°C° 0 mm 4 m/s 738 mmHg 62%
19:00 +25°C° 0 mm 4 m/s 738 mmHg 69%
20:00 +23°C° 0 mm 4 m/s 738 mmHg 74%
21:00 +22°C° 0 mm 3 m/s 738 mmHg 78%
22:00 +21°C° 0 mm 3 m/s 738 mmHg 83%
23:00 +20°C° 0 mm 3 m/s 738 mmHg 86%

Depois de amanhã, 21 Junho, Segunda-feira

Tempo Temperatura Precipitação Vento Pressão Humidade
00:00 +20°C° 0 mm 3 m/s 738 mmHg 89%
01:00 +19°C° 0 mm 3 m/s 737 mmHg 91%
02:00 +19°C° 0 mm 3 m/s 737 mmHg 92%
03:00 +19°C° 0 mm 3 m/s 737 mmHg 93%
04:00 +18°C° 0 mm 3 m/s 737 mmHg 94%
05:00 +20°C° 0 mm 3 m/s 737 mmHg 87%
06:00 +21°C° 0 mm 4 m/s 737 mmHg 81%
07:00 +23°C° 0 mm 4 m/s 737 mmHg 74%
08:00 +25°C° 0 mm 4 m/s 737 mmHg 68%
09:00 +27°C° 0 mm 4 m/s 737 mmHg 62%
10:00 +28°C° 0 mm 5 m/s 737 mmHg 56%
11:00 +29°C° 0 mm 4 m/s 737 mmHg 53%
12:00 +30°C° 0 mm 4 m/s 736 mmHg 50%
13:00 +30°C° 0 mm 3 m/s 736 mmHg 47%
14:00 +32°C° 0 mm 4 m/s 736 mmHg 47%
15:00 +32°C° 0 mm 4 m/s 736 mmHg 47%
16:00 +32°C° 0 mm 4 m/s 736 mmHg 47%
17:00 +29°C° 0 mm 4 m/s 736 mmHg 55%
18:00 +27°C° 0 mm 4 m/s 735 mmHg 64%
19:00 +26°C° 0 mm 5 m/s 735 mmHg 72%
20:00 +23°C° 0.3 mm 4 m/s 736 mmHg 78%
21:00 +22°C° 0.3 mm 3 m/s 736 mmHg 84%
22:00 +20°C° 0.3 mm 3 m/s 736 mmHg 89%
23:00 +20°C° 0.1 mm 2 m/s 736 mmHg 90%

22 Junho, Terça-feira

Tempo Temperatura Precipitação Vento Pressão Humidade
00:00 +20°C° 0.1 mm 2 m/s 736 mmHg 91%
01:00 +19°C° 0.1 mm 2 m/s 736 mmHg 92%
02:00 +19°C° 0.3 mm 2 m/s 736 mmHg 92%
03:00 +19°C° 0.3 mm 2 m/s 737 mmHg 93%
04:00 +19°C° 0.3 mm 2 m/s 737 mmHg 93%
05:00 +19°C° 0.5 mm 2 m/s 737 mmHg 91%
06:00 +20°C° 0.5 mm 2 m/s 738 mmHg 88%
07:00 +21°C° 0.5 mm 2 m/s 738 mmHg 86%
08:00 +23°C° 0.2 mm 2 m/s 738 mmHg 80%
09:00 +24°C° 0.2 mm 2 m/s 738 mmHg 75%
10:00 +26°C° 0.2 mm 2 m/s 739 mmHg 70%
11:00 +27°C° 0 mm 2 m/s 739 mmHg 65%
12:00 +28°C° 0 mm 2 m/s 739 mmHg 60%
13:00 +29°C° 0 mm 3 m/s 739 mmHg 55%
14:00 +29°C° 0.2 mm 3 m/s 739 mmHg 57%
15:00 +29°C° 0.2 mm 3 m/s 739 mmHg 59%
16:00 +28°C° 0.2 mm 3 m/s 739 mmHg 61%
17:00 +28°C° 0.1 mm 2 m/s 739 mmHg 64%
18:00 +27°C° 0.1 mm 2 m/s 740 mmHg 68%
19:00 +26°C° 0.1 mm 2 m/s 740 mmHg 71%
20:00 +25°C° 0 mm 2 m/s 740 mmHg 74%
21:00 +24°C° 0 mm 2 m/s 740 mmHg 78%
22:00 +23°C° 0 mm 2 m/s 740 mmHg 81%
23:00 +21°C° 0 mm 2 m/s 740 mmHg 84%

23 Junho, Quarta-feira

Tempo Temperatura Precipitação Vento Pressão Humidade
00:00 +20°C° 0 mm 2 m/s 740 mmHg 88%
01:00 +20°C° 0 mm 2 m/s 740 mmHg 91%
02:00 +20°C° 0 mm 1 m/s 740 mmHg 91%
03:00 +20°C° 0 mm 1 m/s 740 mmHg 92%
04:00 +20°C° 0 mm 1 m/s 740 mmHg 93%
05:00 +22°C° 0 mm 1 m/s 740 mmHg 87%
06:00 +23°C° 0 mm 1 m/s 741 mmHg 82%
07:00 +25°C° 0 mm 1 m/s 741 mmHg 77%
08:00 +26°C° 0 mm 1 m/s 741 mmHg 70%
09:00 +28°C° 0 mm 1 m/s 741 mmHg 64%
10:00 +29°C° 0 mm 1 m/s 741 mmHg 58%
11:00 +30°C° 0 mm 1 m/s 741 mmHg 54%
12:00 +31°C° 0 mm 1 m/s 741 mmHg 50%
13:00 +32°C° 0 mm 1 m/s 741 mmHg 46%
14:00 +32°C° 0 mm 1 m/s 741 mmHg 45%
15:00 +32°C° 0 mm 1 m/s 741 mmHg 44%
16:00 +32°C° 0 mm 1 m/s 741 mmHg 43%
17:00 +31°C° 0 mm 1 m/s 741 mmHg 49%
18:00 +30°C° 0 mm 2 m/s 740 mmHg 56%
19:00 +28°C° 0 mm 2 m/s 740 mmHg 62%
20:00 +27°C° 0 mm 2 m/s 740 mmHg 65%
21:00 +26°C° 0 mm 2 m/s 741 mmHg 68%
22:00 +25°C° 0 mm 3 m/s 741 mmHg 71%
23:00 +24°C° 0 mm 2 m/s 741 mmHg 74%

24 Junho, Quinta-feira

Tempo Temperatura Precipitação Vento Pressão Humidade
00:00 +24°C° 0 mm 2 m/s 740 mmHg 78%
01:00 +23°C° 0 mm 2 m/s 740 mmHg 81%
02:00 +23°C° 0.4 mm 2 m/s 740 mmHg 84%
03:00 +21°C° 0.4 mm 2 m/s 740 mmHg 86%
04:00 +21°C° 0.4 mm 2 m/s 740 mmHg 89%
05:00 +21°C° 1.1 mm 2 m/s 740 mmHg 90%
06:00 +21°C° 1.1 mm 2 m/s 741 mmHg 91%
07:00 +21°C° 1.1 mm 3 m/s 741 mmHg 92%
08:00 +23°C° 0.3 mm 2 m/s 741 mmHg 88%
09:00 +24°C° 0.3 mm 2 m/s 741 mmHg 83%
10:00 +25°C° 0.3 mm 1 m/s 741 mmHg 78%
11:00 +26°C° 0.1 mm 2 m/s 741 mmHg 74%
12:00 +27°C° 0.1 mm 2 m/s 741 mmHg 69%
13:00 +28°C° 0.1 mm 3 m/s 741 mmHg 65%
14:00 +28°C° 0 mm 3 m/s 741 mmHg 64%
15:00 +28°C° 0 mm 3 m/s 741 mmHg 62%
16:00 +28°C° 0 mm 3 m/s 741 mmHg 61%
17:00 +27°C° 0.1 mm 3 m/s 741 mmHg 67%
18:00 +26°C° 0.1 mm 4 m/s 740 mmHg 72%
19:00 +25°C° 0.1 mm 4 m/s 740 mmHg 78%
20:00 +23°C° 0.2 mm 4 m/s 740 mmHg 83%
21:00 +22°C° 0.2 mm 3 m/s 741 mmHg 88%
22:00 +21°C° 0.2 mm 3 m/s 741 mmHg 93%
23:00 +21°C° 0 mm 2 m/s 740 mmHg 94%
Mostrar mais

Necessitamos do seu Consentimento

A Meteoprog e os seus Fornecedores de Serviços podem armazenar e aceder a dados pessoais como cookies, identificadores do dispositivo ou outras tecnologias semelhantes existentes no seu dispositivo e processar estes dados para personalizar conteúdos e anúncios, assim como funcionalidades nas redes sociais e análise de tráfego.

  • Armazenar e/ou aceder a informações no seu dispositivo

    Os cookies, identificadores do dispositivo ou outras informações podem ser armazenados ou acedidos no seu dispositivo, para os fins acima indicados.

  • Anúncios e conteúdos personalizados, medição de anúncios e conteúdos, dados sobre o público-alvo e desenvolvimento de produtos

    Os anúncios e os conteúdos podem ser personalizados com base num perfil. Podem ser adicionados dados adicionais para uma maior personalização dos anúncios e dos conteúdos. A eficácia dos anúncios e dos conteúdos pode ser medida. Podem ser obtidas informações sobre o público que visualizou os anúncios e os conteúdos. Estes dados podem ser usados para desenvolver ou melhorar sistemas, softwares ou a experiência do utilizador.

Ao clicar em "Eu concordo”, permitirá o uso de cookies, identificadores do dispositivo e web beacons mencionados ou outras tecnologias semelhantes. As configurações do navegador do seu dispositivo podem ser alteradas.

Para certos fins, podem ser invocados interesses legítimos ao invés de consentimento. Pode ler mais informação sobre este assunto na nossa Política de Privacidade e Cookies.